Regional Weather Roundup
Issued by NWS Kansas City/Pleasant Hill, MO

Home | Current Version | Previous Version | Graphics & Text | Print | Product List | Glossary Off
Versions: 1 2 3 4 5 6 7 8 9 10 11 12 13 14 15 16 17 18 19 20 21 22 23 24 25 26 27

000
ASUS43 KEAX 301310
RWREAX

WEATHER ROUNDUP FOR EASTERN KANSAS AND NORTHWEST MISSOURI
NATIONAL WEATHER SERVICE KANSAS CITY/PLEASANT HILL MO
800 AM CDT TUE AUG 30 2016

KSZ040-057-103>105-MOZ028-029-037-043-301400-
...KANSAS CITY METROPOLITAN AREA...

CITY           SKY/WX    TMP DP  RH WIND       PRES   REMARKS
K.C. INTL      PTSUNNY   71  68  90 CALM      30.15R
K.C. DOWNTOWN  PTSUNNY   72  69  90 CALM      30.14R
LEES SUMMIT    SUNNY     71  68  90 E3        30.15S
OLATHE - IXD   MOSUNNY   70  70 100 SE3       30.16R
OLATHE - OJC   PTSUNNY   69  68  96 SE5       30.16R
LAWRENCE       PTSUNNY   71  71 100 CALM      30.16R

$$

MOZ001>008-011>017-020>025-030>033-038>040-044>046-053-054-301400-
...NORTHERN AND CENTRAL MISSOURI...

CITY           SKY/WX    TMP DP  RH WIND       PRES   REMARKS
ST. JOSEPH     MOSUNNY   69  69 100 CALM      30.16R
MOSBY          CLOUDY    70  70 100 CALM      30.14S FOG
WHITEMAN AFB   PTSUNNY   71  71 100 E1        30.15R
CLINTON        CLOUDY    72  70  94 CALM      30.16S
SEDALIA        MOSUNNY   74  71  91 E7        30.17S
WARSAW         NOT AVBL
CHILLICOTHE      N/A     72  71  97 N3        30.16F
KIRKSVILLE     TSTM      70  69  97 NE8       30.19F FOG

$$

MOZ041-047>049-056>058-063>065-088>090-097-301400-
...EASTERN AND SOUTHERN MISSOURI...

CITY           SKY/WX    TMP DP  RH WIND       PRES   REMARKS
ST. LOUIS INTL MOSUNNY   80  74  81 E3        30.15R
SPIRIT OF STL  SUNNY     75  74  96 CALM      30.13S FOG
COLUMBIA       PTSUNNY   74  73  97 N6        30.16S FOG
JEFFERSON CITY CLOUDY    73  72  96 NW3       30.15R FOG
ROLLA          SUNNY     77  72  84 CALM      30.16R
OSAGE BEACH    SUNNY     74  71  91 CALM      30.16S
SPRINGFIELD    SUNNY     74  70  87 NW3       30.16R
BRANSON        MOSUNNY   72  72 100 CALM      30.17R FOG
JOPLIN         SUNNY     74  69  85 CALM      30.15S
WEST PLAINS    SUNNY     75  71  87 CALM      30.18R

$$

IAZ060-094-KSZ022-034>040-054-083-096-NEZ052-066-093-301400-
...KANSAS...SOUTHEAST NEBRASKA AND IOWA...

CITY           SKY/WX    TMP DP  RH WIND       PRES   REMARKS
TOPEKA         SUNNY     72  70  93 CALM      30.15R
MANHATTAN      CLOUDY    72  69  90 CALM      30.17R
EMPORIA        LGT RAIN  73  72  96 CALM      30.17S FOG
CHANUTE        SUNNY     74  71  91 E6        30.15R
WICHITA        PTSUNNY   76  72  87 NE5       30.16R
OMAHA          CLOUDY    70  66  87 CALM      30.20R FOG
LINCOLN        LGT RAIN  70  68  93 E3        30.22R FOG
FALLS CITY     HVY RAIN  70  70 100 W12       30.20R FOG
LAMONI         CLOUDY    70  69  97 E5        30.18F
DES MOINES     CLOUDY    72  70  93 NW3       30.17R FOG

$$





USA.gov is the U.S. government's official web portal to all federal, state and local government web resources and services.